Time,TemperatureF,DewpointF,PressureIn,WindDirection,WindDirectionDegrees,WindSpeedMPH,WindSpeedGustMPH,Humidity,HourlyPrecipIn,Conditions,Clouds,dailyrainin,SoftwareType,DateUTC
2013-10-10 00:00:00,48.1,45.9,30.06,SSW,200,0.0,7.0,92,0.00,,,0.00,Wunderground v.1.15,2013-10-10 04:00:00,
2013-10-10 00:05:00,47.9,45.7,30.06,SSW,200,0.0,7.0,92,0.00,,,0.00,Wunderground v.1.15,2013-10-10 04:05:00,
2013-10-10 00:10:00,47.8,45.6,30.06,SSW,200,0.0,7.0,92,0.00,,,0.00,Wunderground v.1.15,2013-10-10 04:10:00,
2013-10-10 00:20:00,47.8,45.9,30.06,SSW,200,0.0,7.0,93,0.00,,,0.00,Wunderground v.1.15,2013-10-10 04:20:00,
2013-10-10 00:25:00,48.1,46.2,30.06,SSW,200,0.0,7.0,93,0.00,,,0.00,Wunderground v.1.15,2013-10-10 04:25:00,
2013-10-10 00:30:00,48.2,46.3,30.05,SSW,200,0.0,7.0,93,0.00,,,0.00,Wunderground v.1.15,2013-10-10 04:30:00,
2013-10-10 00:35:00,48.1,46.2,30.05,SSW,200,0.0,7.0,93,0.00,,,0.00,Wunderground v.1.15,2013-10-10 04:35:00,
2013-10-10 00:40:00,48.1,46.2,30.05,SSW,200,0.0,7.0,93,0.00,,,0.00,Wunderground v.1.15,2013-10-10 04:40:00,
2013-10-10 00:45:00,48.0,45.8,30.05,SSW,200,0.0,7.0,92,0.00,,,0.00,Wunderground v.1.15,2013-10-10 04:45:00,
2013-10-10 00:50:00,47.8,45.6,30.04,SSW,200,0.0,7.0,92,0.00,,,0.00,Wunderground v.1.15,2013-10-10 04:50:00,
2013-10-10 00:55:00,47.7,45.5,30.04,SSW,200,0.0,7.0,92,0.00,,,0.00,Wunderground v.1.15,2013-10-10 04:55:00,
2013-10-10 01:00:00,47.5,45.3,30.04,SSW,200,0.0,7.0,92,0.00,,,0.00,Wunderground v.1.15,2013-10-10 05:00:00,
2013-10-10 01:05:00,47.4,45.2,30.03,SSW,200,0.0,7.0,92,0.00,,,0.00,Wunderground v.1.15,2013-10-10 05:05:00,
2013-10-10 01:10:00,47.2,45.3,30.03,SSW,200,0.0,7.0,93,0.00,,,0.00,Wunderground v.1.15,2013-10-10 05:10:00,
2013-10-10 01:20:00,47.0,45.1,30.02,SSW,200,0.0,7.0,93,0.00,,,0.00,Wunderground v.1.15,2013-10-10 05:20:00,
2013-10-10 01:25:00,46.9,45.0,30.02,SSW,200,0.0,7.0,93,0.00,,,0.00,Wunderground v.1.15,2013-10-10 05:25:00,
2013-10-10 01:30:00,46.9,45.0,30.02,SSW,200,0.0,7.0,93,0.00,,,0.00,Wunderground v.1.15,2013-10-10 05:30:00,
2013-10-10 01:35:00,46.7,44.8,30.02,SSW,200,0.0,7.0,93,0.00,,,0.00,Wunderground v.1.15,2013-10-10 05:35:00,
2013-10-10 01:40:00,46.5,44.6,30.02,SSW,200,0.0,7.0,93,0.00,,,0.00,Wunderground v.1.15,2013-10-10 05:40:00,
2013-10-10 01:45:00,46.4,44.5,30.02,SSW,200,0.0,7.0,93,0.00,,,0.00,Wunderground v.1.15,2013-10-10 05:45:00,
2013-10-10 01:55:00,46.1,44.2,30.02,SSW,200,0.0,7.0,93,0.00,,,0.00,Wunderground v.1.15,2013-10-10 05:55:00,
2013-10-10 02:00:00,46.0,44.1,30.02,SSW,200,0.0,7.0,93,0.00,,,0.00,Wunderground v.1.15,2013-10-10 06:00:00,
2013-10-10 02:05:00,46.0,44.1,30.02,SSW,200,0.0,7.0,93,0.00,,,0.00,Wunderground v.1.15,2013-10-10 06:05:00,
2013-10-10 02:10:00,45.9,44.0,30.02,SSW,200,0.0,7.0,93,0.00,,,0.00,Wunderground v.1.15,2013-10-10 06:10:00,
2013-10-10 02:15:00,45.9,44.0,30.02,SSW,200,0.0,7.0,93,0.00,,,0.00,Wunderground v.1.15,2013-10-10 06:15:00,
2013-10-10 02:25:00,45.6,43.7,30.01,SSW,200,0.0,7.0,93,0.00,,,0.00,Wunderground v.1.15,2013-10-10 06:25:00,
2013-10-10 02:30:00,45.4,43.5,30.02,SSW,200,0.0,7.0,93,0.00,,,0.00,Wunderground v.1.15,2013-10-10 06:30:00,
2013-10-10 02:35:00,45.3,43.4,30.02,SSW,200,0.0,7.0,93,0.00,,,0.00,Wunderground v.1.15,2013-10-10 06:35:00,
2013-10-10 02:40:00,45.1,43.2,30.02,SSW,200,0.0,7.0,93,0.00,,,0.00,Wunderground v.1.15,2013-10-10 06:40:00,
2013-10-10 02:45:00,45.0,43.1,30.02,SSW,200,0.0,7.0,93,0.00,,,0.00,Wunderground v.1.15,2013-10-10 06:45:00,
2013-10-10 02:55:00,44.9,43.0,30.02,SSW,200,0.0,7.0,93,0.00,,,0.00,Wunderground v.1.15,2013-10-10 06:55:00,
2013-10-10 03:00:00,44.8,43.2,30.02,SSW,200,0.0,7.0,94,0.00,,,0.00,Wunderground v.1.15,2013-10-10 07:00:00,
2013-10-10 03:05:00,44.8,43.2,30.02,SSW,200,0.0,7.0,94,0.00,,,0.00,Wunderground v.1.15,2013-10-10 07:05:00,
2013-10-10 03:10:00,44.6,42.7,30.02,SSW,200,0.0,7.0,93,0.00,,,0.00,Wunderground v.1.15,2013-10-10 07:10:00,
2013-10-10 03:15:00,44.4,42.5,30.02,SSW,200,0.0,7.0,93,0.00,,,0.00,Wunderground v.1.15,2013-10-10 07:15:00,
2013-10-10 03:20:00,44.2,42.3,30.01,SSW,200,0.0,7.0,93,0.00,,,0.00,Wunderground v.1.15,2013-10-10 07:20:00,
2013-10-10 07:30:00,41.9,40.3,30.01,SSW,200,0.0,7.0,94,0.00,,,0.01,Wunderground v.1.15,2013-10-10 11:30:00,
2013-10-10 07:40:00,41.6,40.0,30.01,SSW,200,0.0,7.0,94,0.00,,,0.01,Wunderground v.1.15,2013-10-10 11:40:00,
2013-10-10 07:45:00,41.6,40.0,30.01,SSW,200,0.0,7.0,94,0.00,,,0.01,Wunderground v.1.15,2013-10-10 11:45:00,
2013-10-10 07:55:00,41.5,39.9,30.01,SSW,200,0.0,7.0,94,0.00,,,0.01,Wunderground v.1.15,2013-10-10 11:55:00,
2013-10-10 08:00:00,41.6,40.0,30.00,SSW,200,0.0,0.0,94,0.00,,,0.01,Wunderground v.1.15,2013-10-10 12:00:00,
2013-10-10 08:10:00,42.0,40.7,30.01,SSW,200,0.0,0.0,95,0.00,,,0.01,Wunderground v.1.15,2013-10-10 12:10:00,
2013-10-10 08:20:00,42.7,41.4,30.01,SSW,200,0.0,0.0,95,0.00,,,0.01,Wunderground v.1.15,2013-10-10 12:20:00,
2013-10-10 08:30:00,43.3,42.0,30.01,SSW,200,0.0,0.0,95,0.00,,,0.01,Wunderground v.1.15,2013-10-10 12:30:00,
2013-10-10 08:40:00,44.3,43.2,30.01,SSW,201,0.0,0.0,96,0.00,,,0.01,Wunderground v.1.15,2013-10-10 12:40:00,
2013-10-10 08:50:00,45.5,44.4,30.01,SSW,201,0.0,0.0,96,0.00,,,0.01,Wunderground v.1.15,2013-10-10 12:50:00,
2013-10-10 09:01:00,46.6,45.5,30.01,SSW,201,0.0,0.0,96,0.00,,,0.01,Wunderground v.1.15,2013-10-10 13:01:00,
2013-10-10 09:10:00,47.4,46.3,30.01,SSW,201,0.0,0.0,96,0.00,,,0.01,Wunderground v.1.15,2013-10-10 13:10:00,
2013-10-10 09:20:00,48.2,47.1,30.01,SSW,201,0.0,0.0,96,0.00,,,0.01,Wunderground v.1.15,2013-10-10 13:20:00,
2013-10-10 09:30:00,49.9,48.8,30.01,SSW,201,0.0,0.0,96,0.00,,,0.01,Wunderground v.1.15,2013-10-10 13:30:00,
2013-10-10 09:40:00,50.8,49.1,30.01,SSW,201,0.0,0.0,94,0.00,,,0.01,Wunderground v.1.15,2013-10-10 13:40:00,
2013-10-10 09:50:00,52.4,49.8,30.01,SSW,201,0.0,0.0,91,0.00,,,0.01,Wunderground v.1.15,2013-10-10 13:50:00,
2013-10-10 10:00:00,53.7,50.8,30.01,SSW,201,0.0,0.0,90,0.00,,,0.01,Wunderground v.1.15,2013-10-10 14:00:00,
2013-10-10 10:10:00,55.3,51.8,30.00,SSW,211,0.0,0.0,88,0.00,,,0.01,Wunderground v.1.15,2013-10-10 14:10:00,
2013-10-10 10:20:00,57.0,51.9,30.00,SSW,211,0.0,0.0,83,0.00,,,0.01,Wunderground v.1.15,2013-10-10 14:20:00,
2013-10-10 10:30:00,58.9,53.4,30.01,SSW,210,0.0,0.0,82,0.00,,,0.01,Wunderground v.1.15,2013-10-10 14:30:00,
2013-10-10 10:35:00,59.6,53.1,30.00,SSW,210,0.0,0.0,79,0.00,,,0.01,Wunderground v.1.15,2013-10-10 14:35:00,
2013-10-10 10:45:00,61.3,53.7,30.00,SSW,210,0.0,0.0,76,0.00,,,0.01,Wunderground v.1.15,2013-10-10 14:45:00,
2013-10-10 10:55:00,63.2,54.0,30.00,SSW,210,0.0,0.0,72,0.00,,,0.01,Wunderground v.1.15,2013-10-10 14:55:00,
2013-10-10 11:01:00,63.6,53.6,30.00,SSW,210,0.0,0.0,70,0.00,,,0.01,Wunderground v.1.15,2013-10-10 15:01:00,
2013-10-10 11:10:00,64.8,54.0,30.00,SSW,209,0.0,0.0,68,0.00,,,0.01,Wunderground v.1.15,2013-10-10 15:10:00,
2013-10-10 11:20:00,66.1,54.4,29.99,SSW,209,0.0,0.0,66,0.00,,,0.01,Wunderground v.1.15,2013-10-10 15:20:00,
2013-10-10 11:25:00,66.7,53.7,29.99,SSW,209,0.0,0.0,63,0.00,,,0.01,Wunderground v.1.15,2013-10-10 15:25:00,
2013-10-10 11:35:00,68.0,55.8,29.99,SSW,209,0.0,0.0,65,0.00,,,0.01,Wunderground v.1.15,2013-10-10 15:35:00,
2013-10-10 11:45:00,68.8,54.3,29.99,SSW,209,0.0,0.0,60,0.00,,,0.01,Wunderground v.1.15,2013-10-10 15:45:00,
2013-10-10 11:55:00,69.3,54.4,29.99,SSW,213,0.0,0.0,59,0.00,,,0.01,Wunderground v.1.15,2013-10-10 15:55:00,
2013-10-10 12:00:00,69.2,54.7,29.99,SSW,213,0.0,0.0,60,0.00,,,0.01,Wunderground v.1.15,2013-10-10 16:00:00,
2013-10-10 12:10:00,69.3,54.8,29.98,SSW,213,0.0,0.0,60,0.00,,,0.01,Wunderground v.1.15,2013-10-10 16:10:00,
2013-10-10 12:15:00,69.4,54.0,29.98,SSW,213,0.0,0.0,58,0.00,,,0.01,Wunderground v.1.15,2013-10-10 16:15:00,
2013-10-10 12:25:00,69.4,54.4,29.97,SW,214,0.0,0.0,59,0.00,,,0.01,Wunderground v.1.15,2013-10-10 16:25:00,
2013-10-10 12:35:00,70.7,54.7,29.97,SW,214,0.0,0.0,57,0.00,,,0.01,Wunderground v.1.15,2013-10-10 16:35:00,
2013-10-10 12:40:00,70.9,54.9,29.97,SW,214,0.0,0.0,57,0.00,,,0.01,Wunderground v.1.15,2013-10-10 16:40:00,
2013-10-10 12:50:00,71.9,55.3,29.97,SSW,210,0.0,0.0,56,0.00,,,0.01,Wunderground v.1.15,2013-10-10 16:50:00,
2013-10-10 13:00:00,72.2,55.1,29.96,SSW,205,0.0,0.0,55,0.00,,,0.01,Wunderground v.1.15,2013-10-10 17:00:00,
2013-10-10 13:10:00,72.8,56.2,29.96,SW,221,0.0,0.0,56,0.00,,,0.01,Wunderground v.1.15,2013-10-10 17:10:00,
2013-10-10 13:15:00,72.8,55.2,29.96,SSW,209,0.0,0.0,54,0.00,,,0.01,Wunderground v.1.15,2013-10-10 17:15:00,
2013-10-10 13:25:00,72.5,56.4,29.96,SSW,202,0.0,0.0,57,0.00,,,0.01,Wunderground v.1.15,2013-10-10 17:25:00,
2013-10-10 13:35:00,72.6,56.5,29.95,SSW,206,1.0,1.0,57,0.00,,,0.01,Wunderground v.1.15,2013-10-10 17:35:00,
2013-10-10 13:40:00,72.3,56.7,29.95,SSW,208,0.0,0.0,58,0.00,,,0.01,Wunderground v.1.15,2013-10-10 17:40:00,
2013-10-10 13:50:00,73.1,58.4,29.95,SSW,206,4.0,5.0,60,0.00,,,0.01,Wunderground v.1.15,2013-10-10 17:50:00,
2013-10-10 14:01:00,74.0,57.8,29.95,South,175,3.0,3.0,57,0.00,,,0.01,Wunderground v.1.15,2013-10-10 18:01:00,
2013-10-10 14:10:00,73.9,59.1,29.94,East,96,2.0,2.0,60,0.00,,,0.01,Wunderground v.1.15,2013-10-10 18:10:00,
2013-10-10 14:20:00,74.0,58.8,29.94,East,92,0.0,0.0,59,0.00,,,0.01,Wunderground v.1.15,2013-10-10 18:20:00,
2013-10-10 14:25:00,74.0,58.8,29.94,SE,126,0.0,0.0,59,0.00,,,0.01,Wunderground v.1.15,2013-10-10 18:25:00,
2013-10-10 14:35:00,73.5,59.2,29.94,East,99,0.0,0.0,61,0.00,,,0.01,Wunderground v.1.15,2013-10-10 18:35:00,
2013-10-10 14:45:00,73.8,60.0,29.93,East,98,0.0,0.0,62,0.00,,,0.01,Wunderground v.1.15,2013-10-10 18:45:00,
2013-10-10 14:55:00,73.4,59.6,29.93,SW,217,2.0,6.0,62,0.00,,,0.01,Wunderground v.1.15,2013-10-10 18:55:00,
2013-10-10 15:00:00,73.6,61.1,29.93,SE,136,2.0,2.0,65,0.00,,,0.01,Wunderground v.1.15,2013-10-10 19:00:00,
2013-10-10 15:10:00,75.2,61.3,29.93,SSW,192,0.0,0.0,62,0.00,,,0.01,Wunderground v.1.15,2013-10-10 19:10:00,
2013-10-10 15:15:00,75.6,60.3,29.93,ESE,107,0.0,0.0,59,0.00,,,0.01,Wunderground v.1.15,2013-10-10 19:15:00,
2013-10-10 15:25:00,76.2,59.9,29.92,SSE,166,0.0,0.0,57,0.00,,,0.01,Wunderground v.1.15,2013-10-10 19:25:00,
2013-10-10 15:35:00,75.7,59.4,29.92,East,86,0.0,0.0,57,0.00,,,0.01,Wunderground v.1.15,2013-10-10 19:35:00,
2013-10-10 15:45:00,75.2,57.4,29.92,North,5,2.0,8.0,54,0.00,,,0.01,Wunderground v.1.15,2013-10-10 19:45:00,
2013-10-10 15:55:00,75.6,57.3,29.92,NE,50,5.0,5.0,53,0.00,,,0.01,Wunderground v.1.15,2013-10-10 19:55:00,
2013-10-10 16:00:00,75.8,58.0,29.92,NNE,19,3.0,5.0,54,0.00,,,0.01,Wunderground v.1.15,2013-10-10 20:00:00,
2013-10-10 16:05:00,75.7,57.9,29.92,North,355,1.0,5.0,54,0.00,,,0.01,Wunderground v.1.15,2013-10-10 20:05:00,
2013-10-10 16:15:00,74.9,58.1,29.92,NNE,13,0.0,1.0,56,0.00,,,0.01,Wunderground v.1.15,2013-10-10 20:15:00,
2013-10-10 16:25:00,75.4,58.1,29.92,NNE,33,1.0,5.0,55,0.00,,,0.01,Wunderground v.1.15,2013-10-10 20:25:00,
2013-10-10 16:30:00,75.3,57.5,29.92,NE,55,2.0,3.0,54,0.00,,,0.01,Wunderground v.1.15,2013-10-10 20:30:00,
2013-10-10 16:35:00,74.9,57.1,29.92,ENE,63,1.0,5.0,54,0.00,,,0.01,Wunderground v.1.15,2013-10-10 20:35:00,
2013-10-10 16:45:00,74.1,57.9,29.92,NE,38,1.0,1.0,57,0.00,,,0.01,Wunderground v.1.15,2013-10-10 20:45:00,
2013-10-10 16:50:00,74.2,58.0,29.92,NNE,22,1.0,1.0,57,0.00,,,0.01,Wunderground v.1.15,2013-10-10 20:50:00,
2013-10-10 17:01:00,73.2,57.5,29.92,ENE,59,0.0,0.0,58,0.00,,,0.01,Wunderground v.1.15,2013-10-10 21:01:00,
2013-10-10 17:10:00,72.2,57.1,29.92,NE,35,0.0,0.0,59,0.00,,,0.01,Wunderground v.1.15,2013-10-10 21:10:00,
2013-10-10 17:20:00,71.5,56.9,29.92,ENE,68,1.0,1.0,60,0.00,,,0.01,Wunderground v.1.15,2013-10-10 21:20:00,
2013-10-10 17:30:00,71.2,56.6,29.91,ENE,72,1.0,1.0,60,0.00,,,0.01,Wunderground v.1.15,2013-10-10 21:30:00,
2013-10-10 17:40:00,71.2,56.6,29.91,East,83,1.0,1.0,60,0.00,,,0.01,Wunderground v.1.15,2013-10-10 21:40:00,
2013-10-10 17:50:00,70.9,56.3,29.91,ENE,74,1.0,1.0,60,0.00,,,0.01,Wunderground v.1.15,2013-10-10 21:50:00,
2013-10-10 18:00:00,70.4,55.4,29.92,ENE,70,1.0,1.0,59,0.00,,,0.01,Wunderground v.1.15,2013-10-10 22:00:00,
2013-10-10 18:05:00,70.5,55.9,29.91,ENE,77,1.0,8.0,60,0.00,,,0.01,Wunderground v.1.15,2013-10-10 22:05:00,
2013-10-10 18:15:00,70.5,55.5,29.92,ENE,77,1.0,8.0,59,0.00,,,0.01,Wunderground v.1.15,2013-10-10 22:15:00,
2013-10-10 18:25:00,69.9,55.4,29.92,ENE,68,0.0,8.0,60,0.00,,,0.01,Wunderground v.1.15,2013-10-10 22:25:00,
2013-10-10 18:35:00,69.0,55.4,29.92,NE,38,0.0,8.0,62,0.00,,,0.01,Wunderground v.1.15,2013-10-10 22:35:00,
2013-10-10 18:45:00,68.3,55.6,29.92,East,100,0.0,8.0,64,0.00,,,0.01,Wunderground v.1.15,2013-10-10 22:45:00,
2013-10-10 18:55:00,67.3,55.5,29.92,ENE,59,0.0,8.0,66,0.00,,,0.01,Wunderground v.1.15,2013-10-10 22:55:00,
2013-10-10 19:05:00,66.5,55.6,29.93,ENE,74,0.0,8.0,68,0.00,,,0.01,Wunderground v.1.15,2013-10-10 23:05:00,
2013-10-10 19:15:00,66.1,55.6,29.93,ENE,63,0.0,8.0,69,0.00,,,0.01,Wunderground v.1.15,2013-10-10 23:15:00,
2013-10-10 19:25:00,65.4,55.7,29.93,ENE,63,0.0,8.0,71,0.00,,,0.01,Wunderground v.1.15,2013-10-10 23:25:00,
2013-10-10 19:30:00,65.1,55.5,29.93,ENE,63,0.0,8.0,71,0.00,,,0.01,Wunderground v.1.15,2013-10-10 23:30:00,
2013-10-10 19:40:00,64.9,55.7,29.93,ENE,68,0.0,8.0,72,0.00,,,0.01,Wunderground v.1.15,2013-10-10 23:40:00,
2013-10-10 19:50:00,64.9,55.7,29.92,East,94,0.0,8.0,72,0.00,,,0.01,Wunderground v.1.15,2013-10-10 23:50:00,
2013-10-10 20:00:00,65.1,55.5,29.92,ENE,67,1.0,1.0,71,0.00,,,0.01,Wunderground v.1.15,2013-10-11 00:00:00,
2013-10-10 20:10:00,64.9,55.3,29.92,ENE,76,0.0,8.0,71,0.00,,,0.01,Wunderground v.1.15,2013-10-11 00:10:00,
2013-10-10 20:20:00,64.4,55.2,29.92,ENE,71,0.0,8.0,72,0.00,,,0.01,Wunderground v.1.15,2013-10-11 00:20:00,
2013-10-10 20:30:00,64.3,55.1,29.92,ENE,62,0.0,8.0,72,0.00,,,0.01,Wunderground v.1.15,2013-10-11 00:30:00,
2013-10-10 20:40:00,64.3,55.5,29.92,ENE,63,0.0,8.0,73,0.00,,,0.01,Wunderground v.1.15,2013-10-11 00:40:00,
2013-10-10 20:50:00,64.3,55.1,29.91,NE,54,1.0,1.0,72,0.00,,,0.01,Wunderground v.1.15,2013-10-11 00:50:00,
2013-10-10 20:55:00,64.3,55.1,29.92,ENE,63,1.0,8.0,72,0.00,,,0.01,Wunderground v.1.15,2013-10-11 00:55:00,
2013-10-10 21:05:00,64.3,55.1,29.92,ENE,69,0.0,8.0,72,0.00,,,0.01,Wunderground v.1.15,2013-10-11 01:05:00,
2013-10-10 21:15:00,64.0,55.2,29.93,East,82,0.0,8.0,73,0.00,,,0.01,Wunderground v.1.15,2013-10-11 01:15:00,
2013-10-10 21:25:00,63.7,55.3,29.93,East,82,0.0,8.0,74,0.00,,,0.01,Wunderground v.1.15,2013-10-11 01:25:00,
2013-10-10 21:35:00,63.1,55.0,29.93,NE,52,0.0,8.0,75,0.00,,,0.01,Wunderground v.1.15,2013-10-11 01:35:00,
2013-10-10 21:45:00,62.8,54.8,29.92,NE,42,0.0,8.0,75,0.00,,,0.01,Wunderground v.1.15,2013-10-11 01:45:00,
2013-10-10 21:55:00,63.1,54.3,29.92,NE,54,1.0,8.0,73,0.00,,,0.01,Wunderground v.1.15,2013-10-11 01:55:00,
2013-10-10 22:05:00,63.9,54.3,29.92,NE,48,2.0,8.0,71,0.00,,,0.01,Wunderground v.1.15,2013-10-11 02:05:00,
2013-10-10 22:15:00,64.0,54.0,29.92,NE,39,2.0,9.0,70,0.00,,,0.01,Wunderground v.1.15,2013-10-11 02:15:00,
2013-10-10 22:20:00,63.8,53.8,29.92,ENE,64,1.0,1.0,70,0.00,,,0.01,Wunderground v.1.15,2013-10-11 02:20:00,
2013-10-10 22:30:00,63.6,54.0,29.92,ENE,61,0.0,8.0,71,0.00,,,0.01,Wunderground v.1.15,2013-10-11 02:30:00,
2013-10-10 22:40:00,63.0,54.2,29.92,ENE,61,0.0,8.0,73,0.00,,,0.01,Wunderground v.1.15,2013-10-11 02:40:00,
2013-10-10 22:50:00,61.9,53.9,29.92,ENE,61,0.0,8.0,75,0.00,,,0.01,Wunderground v.1.15,2013-10-11 02:50:00,
2013-10-10 23:00:00,60.7,53.8,29.92,ENE,61,0.0,8.0,78,0.00,,,0.01,Wunderground v.1.15,2013-10-11 03:00:00,
2013-10-10 23:10:00,59.6,53.4,29.92,ENE,61,0.0,8.0,80,0.00,,,0.01,Wunderground v.1.15,2013-10-11 03:10:00,
2013-10-10 23:20:00,58.7,53.2,29.91,ENE,61,0.0,8.0,82,0.00,,,0.01,Wunderground v.1.15,2013-10-11 03:20:00,
2013-10-10 23:25:00,58.4,53.3,29.91,ENE,61,0.0,8.0,83,0.00,,,0.01,Wunderground v.1.15,2013-10-11 03:25:00,
2013-10-10 23:35:00,57.5,52.7,29.91,ENE,61,0.0,8.0,84,0.00,,,0.01,Wunderground v.1.15,2013-10-11 03:35:00,
2013-10-10 23:45:00,57.0,52.9,29.91,ENE,61,0.0,8.0,86,0.00,,,0.01,Wunderground v.1.15,2013-10-11 03:45:00,
2013-10-10 23:55:00,56.5,53.0,29.91,ENE,61,0.0,8.0,88,0.00,,,0.01,Wunderground v.1.15,2013-10-11 03:55:00,